| time (UTC) | temp F | wind direction | speed MPH | gust MPH | rain 1hr in | rain 24hr in | rain mn in | humidity % | barometer mb |
| 20260906220029 | 88 | 236 | 2.0 | 5.0 | 0.00 | 0.00 | 0.00 | 33 | 1016.0 |
| 20260906214531 | 88 | 341 | 2.0 | 8.0 | 0.00 | 0.00 | 0.00 | 33 | 1016.2 |
| 20260906213025 | 88 | 32 | 4.0 | 6.0 | 0.00 | 0.00 | 0.00 | 33 | 1016.4 |
| 20260906211522 | 88 | 355 | 4.0 | 7.0 | 0.00 | 0.00 | 0.00 | 33 | 1016.7 |
| 20260906210029 | 87 | 96 | 3.0 | 7.0 | 0.00 | 0.00 | 0.00 | 37 | 1016.9 |
| 20260906204527 | 87 | 115 | 3.0 | 7.0 | 0.00 | 0.00 | 0.00 | 34 | 1017.0 |
| 20260906203026 | 87 | 138 | 2.0 | 7.0 | 0.00 | 0.00 | 0.00 | 35 | 1017.2 |
| 20260906201524 | 86 | 105 | 3.0 | 7.0 | 0.00 | 0.00 | 0.00 | 34 | 1017.3 |
| 20260906200038 | 86 | 110 | 3.0 | 11.0 | 0.00 | 0.00 | 0.00 | 37 | 1017.4 |
| 20260906194536 | 85 | 67 | 5.0 | 7.0 | 0.00 | 0.00 | 0.00 | 36 | 1017.5 |
| 20260906193036 | 84 | 63 | 1.0 | 8.0 | 0.00 | 0.00 | 0.00 | 39 | 1017.6 |
| 20260906191531 | 85 | 349 | 3.0 | 6.0 | 0.00 | 0.00 | 0.00 | 37 | 1017.9 |
| 20260906190031 | 83 | 106 | 4.0 | 8.0 | 0.00 | 0.00 | 0.00 | 39 | 1018.1 |
| 20260906184528 | 82 | 74 | 1.0 | 8.0 | 0.00 | 0.00 | 0.00 | 38 | 1018.4 |
| 20260906183028 | 82 | 76 | 3.0 | 8.0 | 0.00 | 0.00 | 0.00 | 40 | 1018.7 |
| 20260906181524 | 82 | 28 | 2.0 | 7.0 | 0.00 | 0.00 | 0.00 | 42 | 1018.8 |
| 20260906180039 | 81 | 44 | 3.0 | 7.0 | 0.00 | 0.00 | 0.00 | 41 | 1019.0 |
| 20260906174530 | 80 | 355 | 2.0 | 6.0 | 0.00 | 0.00 | 0.00 | 41 | 1019.3 |
| 20260906173026 | 79 | 355 | 3.0 | 5.0 | 0.00 | 0.00 | 0.00 | 44 | 1019.5 |
| 20260906171523 | 77 | 143 | 1.0 | 3.0 | 0.00 | 0.00 | 0.00 | 44 | 1019.7 |
| 20260906170033 | 76 | 89 | 1.0 | 4.0 | 0.00 | 0.00 | 0.00 | 47 | 1020.1 |
| 20260906164532 | 76 | 36 | 2.0 | 4.0 | 0.00 | 0.00 | 0.00 | 50 | 1020.1 |
| 20260906163031 | 76 | 88 | 2.0 | 7.0 | 0.00 | 0.00 | 0.00 | 51 | 1020.1 |
| 20260906161538 | 75 | 57 | 2.0 | 5.0 | 0.00 | 0.00 | 0.00 | 56 | 1020.0 |
| 20260906160045 | 74 | 340 | 2.0 | 8.0 | 0.00 | 0.00 | 0.00 | 58 | 1020.0 |
| 20260906154547 | 73 | 49 | 2.0 | 8.0 | 0.00 | 0.00 | 0.00 | 62 | 1020.0 |
| 20260906153049 | 72 | 325 | 1.0 | 4.0 | 0.00 | 0.00 | 0.00 | 64 | 1020.0 |
| 20260906151543 | 70 | 263 | 2.0 | 6.0 | 0.00 | 0.00 | 0.00 | 67 | 1020.1 |
| 20260906150025 | 69 | 296 | 2.0 | 5.0 | 0.00 | 0.00 | 0.00 | 68 | 1020.3 |
| 20260906144524 | 69 | 330 | 1.0 | 5.0 | 0.00 | 0.00 | 0.00 | 71 | 1020.1 |
| 20260906143025 | 68 | 282 | 1.0 | 5.0 | 0.00 | 0.00 | 0.00 | 73 | 1020.1 |
| 20260906141524 | 66 | 265 | 2.0 | 5.0 | 0.00 | 0.00 | 0.00 | 76 | 1020.0 |
| 20260906140032 | 65 | 260 | 3.0 | 6.0 | 0.00 | 0.00 | 0.00 | 78 | 1020.1 |
| 20260906134520 | 64 | 278 | 2.0 | 4.0 | 0.00 | 0.00 | 0.00 | 78 | 1020.0 |
| 20260906133024 | 63 | 306 | 1.0 | 5.0 | 0.00 | 0.00 | 0.00 | 79 | 1019.9 |
| 20260906131519 | 62 | 306 | 2.0 | 4.0 | 0.00 | 0.00 | 0.00 | 78 | 1019.8 |
| 20260906130026 | 61 | 306 | 2.0 | 4.0 | 0.00 | 0.00 | 0.00 | 80 | 1019.8 |
| 20260906124516 | 61 | 306 | 0.0 | 2.0 | 0.00 | 0.00 | 0.00 | 81 | 1019.7 |
| 20260906123028 | 61 | 306 | 0.0 | 0.0 | 0.00 | 0.00 | 0.00 | 81 | 1019.8 |
| 20260906121515 | 61 | 306 | 0.0 | 0.0 | 0.00 | 0.00 | 0.00 | 81 | 1019.6 |
| 20260906120012 | 62 | 306 | 0.0 | 2.0 | 0.00 | 0.00 | 0.00 | 80 | 1019.7 |
| 20260906114511 | 62 | 306 | 0.0 | 3.0 | 0.00 | 0.00 | 0.00 | 79 | 1019.6 |
| 20260906113013 | 63 | 306 | 0.0 | 2.0 | 0.00 | 0.00 | 0.00 | 78 | 1019.7 |
| 20260906111507 | 63 | 306 | 1.0 | 3.0 | 0.00 | 0.00 | 0.00 | 78 | 1019.5 |
| 20260906110005 | 63 | 306 | 0.0 | 4.0 | 0.00 | 0.00 | 0.00 | 77 | 1019.4 |
| 20260906104503 | 63 | 305 | 1.0 | 5.0 | 0.00 | 0.00 | 0.00 | 75 | 1019.3 |
| 20260906103004 | 64 | 332 | 1.0 | 3.0 | 0.00 | 0.00 | 0.00 | 74 | 1019.4 |
| 20260906101600 | 64 | 342 | 1.0 | 4.0 | 0.00 | 0.00 | 0.00 | 72 | 1019.4 |
| 20260906094556 | 66 | 349 | 1.0 | 4.0 | 0.00 | 0.00 | 0.00 | 66 | 1019.4 |
| 20260906093052 | 66 | 349 | 2.0 | 5.0 | 0.00 | 0.00 | 0.00 | 61 | 1019.4 |
| 20260906091549 | 67 | 349 | 0.0 | 3.0 | 0.00 | 0.00 | 0.00 | 57 | 1019.3 |
| 20260906090045 | 68 | 360 | 1.0 | 6.0 | 0.00 | 0.00 | 0.00 | 56 | 1019.1 |
| 20260906084543 | 69 | 17 | 1.0 | 5.0 | 0.00 | 0.00 | 0.00 | 51 | 1019.1 |
| 20260906083041 | 69 | 17 | 1.0 | 4.0 | 0.00 | 0.00 | 0.00 | 51 | 1019.0 |
| 20260906081540 | 70 | 259 | 0.0 | 4.0 | 0.00 | 0.00 | 0.00 | 49 | 1018.9 |
| 20260906080038 | 70 | 259 | 2.0 | 4.0 | 0.00 | 0.00 | 0.00 | 48 | 1018.7 |
| 20260906074547 | 70 | 259 | 3.0 | 5.0 | 0.00 | 0.00 | 0.00 | 50 | 1018.5 |
| 20260906073036 | 70 | 253 | 2.0 | 3.0 | 0.00 | 0.00 | 0.00 | 54 | 1018.6 |
| 20260906071534 | 70 | 253 | 2.0 | 4.0 | 0.00 | 0.00 | 0.00 | 60 | 1018.7 |
| 20260906070030 | 71 | 253 | 2.0 | 3.0 | 0.00 | 0.00 | 0.00 | 56 | 1018.7 |
| 20260906064527 | 72 | 253 | 2.0 | 4.0 | 0.00 | 0.00 | 0.00 | 53 | 1018.8 |
| 20260906063030 | 72 | 189 | 1.0 | 3.0 | 0.00 | 0.00 | 0.00 | 48 | 1019.0 |
| 20260906061523 | 73 | 189 | 0.0 | 4.0 | 0.00 | 0.00 | 0.00 | 48 | 1018.9 |
| 20260906060022 | 73 | 189 | 3.0 | 7.0 | 0.00 | 0.00 | 0.00 | 46 | 1018.9 |
| 20260906054532 | 74 | 294 | 1.0 | 3.0 | 0.00 | 0.00 | 0.00 | 45 | 1018.7 |
| 20260906053020 | 75 | 244 | 1.0 | 4.0 | 0.00 | 0.00 | 0.00 | 42 | 1019.0 |
| 20260906051529 | 75 | 171 | 0.0 | 2.0 | 0.00 | 0.00 | 0.00 | 43 | 1019.4 |
| 20260906050035 | 74 | 169 | 0.0 | 3.0 | 0.00 | 0.00 | 0.00 | 40 | 1019.7 |
| 20260906044529 | 74 | 268 | 2.0 | 3.0 | 0.00 | 0.00 | 0.00 | 43 | 1019.7 |
| 20260906043027 | 75 | 325 | 0.0 | 3.0 | 0.00 | 0.00 | 0.00 | 46 | 1018.9 |
| 20260906041525 | 75 | 344 | 1.0 | 2.0 | 0.00 | 0.00 | 0.00 | 38 | 1018.8 |
| 20260906040038 | 76 | 355 | 0.0 | 2.0 | 0.00 | 0.00 | 0.00 | 36 | 1018.6 |
| 20260906034536 | 76 | 350 | 0.0 | 2.0 | 0.00 | 0.00 | 0.00 | 36 | 1018.4 |
| 20260906033028 | 76 | 350 | 1.0 | 2.0 | 0.00 | 0.00 | 0.00 | 36 | 1018.4 |
| 20260906031557 | 76 | 355 | 1.0 | 3.0 | 0.00 | 0.00 | 0.00 | 35 | 1018.3 |
| 20260906030033 | 77 | 355 | 1.0 | 2.0 | 0.00 | 0.00 | 0.00 | 34 | 1017.8 |
| 20260906024552 | 78 | 355 | 0.0 | 2.0 | 0.00 | 0.00 | 0.00 | 33 | 1017.5 |
| 20260906023034 | 79 | 30 | 0.0 | 1.0 | 0.00 | 0.00 | 0.00 | 32 | 1017.5 |
| 20260906021531 | 80 | 98 | 1.0 | 3.0 | 0.00 | 0.00 | 0.00 | 31 | 1017.5 |
| 20260906020037 | 81 | 302 | 1.0 | 5.0 | 0.00 | 0.00 | 0.00 | 29 | 1017.3 |
| 20260906014537 | 81 | 277 | 2.0 | 4.0 | 0.00 | 0.00 | 0.00 | 29 | 1017.2 |
| 20260906013037 | 82 | 269 | 2.0 | 6.0 | 0.00 | 0.00 | 0.00 | 28 | 1017.1 |
| 20260906011537 | 83 | 279 | 2.0 | 8.0 | 0.00 | 0.00 | 0.00 | 27 | 1017.1 |
| 20260906010039 | 84 | 282 | 3.0 | 12.0 | 0.00 | 0.00 | 0.00 | 26 | 1017.1 |
| 20260906004520 | 86 | 334 | 1.0 | 9.0 | 0.00 | 0.00 | 0.00 | 25 | 1017.1 |
| 20260906003020 | 87 | 5 | 2.0 | 5.0 | 0.00 | 0.00 | 0.00 | 24 | 1017.2 |
| 20260906001524 | 88 | 337 | 2.0 | 6.0 | 0.00 | 0.00 | 0.00 | 23 | 1017.1 |
| 20260906000026 | 89 | 350 | 3.0 | 6.0 | 0.00 | 0.00 | 0.00 | 22 | 1016.9 |
| 20260905234524 | 90 | 38 | 0.0 | 3.0 | 0.00 | 0.00 | 0.00 | 23 | 1017.0 |
| 20260905233025 | 90 | 342 | 1.0 | 4.0 | 0.00 | 0.00 | 0.00 | 22 | 1016.9 |
| 20260905231524 | 91 | 205 | 0.0 | 3.0 | 0.00 | 0.00 | 0.00 | 21 | 1016.8 |
| 20260905230035 | 91 | 19 | 1.0 | 7.0 | 0.00 | 0.00 | 0.00 | 21 | 1016.8 |
| 20260905224533 | 91 | 5 | 2.0 | 5.0 | 0.00 | 0.00 | 0.00 | 20 | 1016.8 |
| 20260905223033 | 92 | 26 | 2.0 | 5.0 | 0.00 | 0.00 | 0.00 | 20 | 1016.8 |
| 20260905221532 | 92 | 19 | 2.0 | 5.0 | 0.00 | 0.00 | 0.00 | 20 | 1016.9 |